SVA1675 OERK-OEAB

Flight info

Callsign SVA1675
Flight time N/A
Altitude 36000
Route MERVI Z414 EMEKO/N0447F370 V40 ABH
Aircraft A320/M-SDE3FGHIRWY/LB1

Departure

Time 2026-04-30 14:50
Airport King Khalid International Airport (OERK)

Arrival

Time N/A
Airport Abha International Airport (OEAB)
Time Latitude Longitude Altitude Speed Heading
2026-04-30 14:27 24.94853 46.71220 2032 ft 0 kts 60°
2026-04-30 14:40 24.94847 46.71207 2041 ft 4 kts 60°
2026-04-30 14:40 24.94833 46.71181 2037 ft 4 kts 60°
2026-04-30 14:40 24.94820 46.71156 2039 ft 3 kts 60°
2026-04-30 14:41 24.94810 46.71135 2035 ft 4 kts 82°
2026-04-30 14:41 24.94814 46.71109 2038 ft 4 kts 134°
2026-04-30 14:41 24.94834 46.71094 2042 ft 3 kts 150°
2026-04-30 14:41 24.94837 46.71092 2042 ft 0 kts 150°
2026-04-30 14:43 24.94835 46.71091 2042 ft 1 kts 167°
2026-04-30 14:43 24.94828 46.71100 2033 ft 1 kts 103°
2026-04-30 14:43 24.94843 46.71099 2040 ft 4 kts 339°
2026-04-30 14:44 24.94872 46.71073 2041 ft 5 kts 320°
2026-04-30 14:44 24.94903 46.71049 2036 ft 5 kts 332°
2026-04-30 14:44 24.94934 46.71033 2034 ft 4 kts 330°
2026-04-30 14:44 24.94999 46.70990 2036 ft 20 kts 328°
2026-04-30 14:45 24.95146 46.70896 2031 ft 25 kts 330°
2026-04-30 14:45 24.95243 46.70909 2038 ft 14 kts 66°
2026-04-30 14:45 24.95293 46.71005 2036 ft 15 kts 59°
2026-04-30 14:45 24.95348 46.71111 2040 ft 17 kts 59°
2026-04-30 14:46 24.95410 46.71227 2036 ft 18 kts 60°
2026-04-30 14:46 24.95488 46.71250 2041 ft 13 kts 329°
2026-04-30 14:46 24.95559 46.71204 2036 ft 11 kts 331°
2026-04-30 14:46 24.95626 46.71162 2035 ft 12 kts 329°
2026-04-30 14:47 24.95699 46.71115 2031 ft 16 kts 330°
2026-04-30 14:47 24.95839 46.71027 2036 ft 31 kts 330°
2026-04-30 14:47 24.96056 46.70890 2039 ft 41 kts 330°
2026-04-30 14:47 24.96328 46.70719 2034 ft 45 kts 329°
2026-04-30 14:48 24.96596 46.70548 2032 ft 44 kts 329°
2026-04-30 14:48 24.96855 46.70385 2033 ft 43 kts 330°
2026-04-30 14:48 24.97000 46.70311 2034 ft 10 kts 13°
2026-04-30 14:48 24.97045 46.70371 2034 ft 11 kts 60°
2026-04-30 14:49 24.97086 46.70453 2033 ft 13 kts 62°
2026-04-30 14:49 24.97129 46.70538 2030 ft 8 kts 66°
2026-04-30 14:49 24.97085 46.70578 2034 ft 15 kts 151°
2026-04-30 14:49 24.96784 46.70772 2034 ft 87 kts 150°
2026-04-30 14:50 24.95111 46.71832 2465 ft 158 kts 149°
2026-04-30 14:50 24.94169 46.72363 3253 ft 152 kts 142°
2026-04-30 14:51 24.92367 46.74056 3831 ft 191 kts 135°
2026-04-30 14:51 24.91294 46.75072 4025 ft 217 kts 136°
2026-04-30 14:51 24.90995 46.75354 4847 ft 261 kts 137°